Year,Month,Day,Hour,Minute,Value (Times are PST for windspeed in km/hr)
2016,08,21,00,00,6.60
2016,08,21,00,01,7.60
2016,08,21,00,02,7.30
2016,08,21,00,03,6.90
2016,08,21,00,04,6.40
2016,08,21,00,05,7.20
2016,08,21,00,06,8.80
2016,08,21,00,07,9.10
2016,08,21,00,08,8.20
2016,08,21,00,09,9.70
2016,08,21,00,10,10.30
2016,08,21,00,11,10.00
2016,08,21,00,12,6.20
2016,08,21,00,13,7.10
2016,08,21,00,14,9.30
2016,08,21,00,15,9.50
2016,08,21,00,16,9.80
2016,08,21,00,17,7.50
2016,08,21,00,18,6.00
2016,08,21,00,19,6.30
2016,08,21,00,20,6.90
2016,08,21,00,21,7.20
2016,08,21,00,22,9.50
2016,08,21,00,23,9.20
2016,08,21,00,24,6.70
2016,08,21,00,25,9.20
2016,08,21,00,26,11.00
2016,08,21,00,27,7.20
2016,08,21,00,28,5.70
2016,08,21,00,29,5.70
2016,08,21,00,30,6.70
2016,08,21,00,31,5.70
2016,08,21,00,32,5.70
2016,08,21,00,33,7.20
2016,08,21,00,34,7.00
2016,08,21,00,35,8.60
2016,08,21,00,36,8.40
2016,08,21,00,37,9.60
2016,08,21,00,38,9.80
2016,08,21,00,39,7.60
2016,08,21,00,40,9.50
2016,08,21,00,41,9.50
2016,08,21,00,42,11.30
2016,08,21,00,43,8.20
2016,08,21,00,44,10.60
2016,08,21,00,45,10.10
2016,08,21,00,46,8.70
2016,08,21,00,47,9.50
2016,08,21,00,48,7.50
2016,08,21,00,49,8.20
2016,08,21,00,50,8.20
2016,08,21,00,51,7.30
2016,08,21,00,52,7.00
2016,08,21,00,53,7.20
2016,08,21,00,54,9.30
2016,08,21,00,55,9.40
2016,08,21,00,56,8.60
2016,08,21,00,57,9.10
2016,08,21,00,58,10.40
2016,08,21,00,59,10.70
2016,08,21,01,00,7.60
2016,08,21,01,01,6.90
2016,08,21,01,02,7.00
2016,08,21,01,03,8.20
2016,08,21,01,04,7.20
2016,08,21,01,05,7.30
2016,08,21,01,06,8.30
2016,08,21,01,07,7.90
2016,08,21,01,08,9.50
2016,08,21,01,09,8.30
2016,08,21,01,10,9.70
2016,08,21,01,11,8.20
2016,08,21,01,12,11.70
2016,08,21,01,13,12.30
2016,08,21,01,14,12.60
2016,08,21,01,15,10.40
2016,08,21,01,16,10.50
2016,08,21,01,17,10.10
2016,08,21,01,18,10.20
2016,08,21,01,19,10.60
2016,08,21,01,20,8.50
2016,08,21,01,21,10.70
2016,08,21,01,22,10.70
2016,08,21,01,23,10.30
2016,08,21,01,24,10.30
2016,08,21,01,25,11.40
2016,08,21,01,26,9.10
2016,08,21,01,27,13.50
2016,08,21,01,28,12.60
2016,08,21,01,29,13.40
2016,08,21,01,30,13.20
2016,08,21,01,31,11.50
2016,08,21,01,32,14.80
2016,08,21,01,33,12.40
2016,08,21,01,34,12.50
2016,08,21,01,35,11.00
2016,08,21,01,36,7.40
2016,08,21,01,37,6.40
2016,08,21,01,38,9.40
2016,08,21,01,39,7.60
2016,08,21,01,40,10.00
2016,08,21,01,41,8.80
2016,08,21,01,42,7.60
2016,08,21,01,43,10.70
2016,08,21,01,44,9.40
2016,08,21,01,45,9.80
2016,08,21,01,46,11.80
2016,08,21,01,47,9.50
2016,08,21,01,48,7.60
2016,08,21,01,49,9.10
2016,08,21,01,50,8.30
2016,08,21,01,51,9.50
2016,08,21,01,52,6.60
2016,08,21,01,53,4.80
2016,08,21,01,54,8.20
2016,08,21,01,55,7.40
2016,08,21,01,56,5.90
2016,08,21,01,57,6.30
2016,08,21,01,58,6.80
2016,08,21,01,59,11.00
2016,08,21,02,00,8.30
2016,08,21,02,01,10.30
2016,08,21,02,02,8.60
2016,08,21,02,03,12.20
2016,08,21,02,04,9.80
2016,08,21,02,05,11.60
2016,08,21,02,06,10.60
2016,08,21,02,07,12.30
2016,08,21,02,08,9.30
2016,08,21,02,09,9.80
2016,08,21,02,10,7.30
2016,08,21,02,11,8.10
2016,08,21,02,12,8.20
2016,08,21,02,13,7.00
2016,08,21,02,14,5.10
2016,08,21,02,15,4.40
2016,08,21,02,16,6.10
2016,08,21,02,17,6.60
2016,08,21,02,18,6.40
2016,08,21,02,19,6.00
2016,08,21,02,20,5.50
2016,08,21,02,21,5.40
2016,08,21,02,22,6.30
2016,08,21,02,23,7.80
2016,08,21,02,24,12.50
2016,08,21,02,25,9.50
2016,08,21,02,26,10.00
2016,08,21,02,27,11.60
2016,08,21,02,28,6.70
2016,08,21,02,29,8.40
2016,08,21,02,30,8.10
2016,08,21,02,31,6.60
2016,08,21,02,32,5.40
2016,08,21,02,33,5.80
2016,08,21,02,34,10.90
2016,08,21,02,35,9.20
2016,08,21,02,36,6.40
2016,08,21,02,37,8.00
2016,08,21,02,38,6.60
2016,08,21,02,39,7.90
2016,08,21,02,40,11.70
2016,08,21,02,41,10.30
2016,08,21,02,42,10.40
2016,08,21,02,43,10.80
2016,08,21,02,44,10.00
2016,08,21,02,45,9.30
2016,08,21,02,46,10.10
2016,08,21,02,47,13.20
2016,08,21,02,48,12.90
2016,08,21,02,49,10.40
2016,08,21,02,50,15.10
2016,08,21,02,51,16.10
2016,08,21,02,52,13.20
2016,08,21,02,53,13.90
2016,08,21,02,54,11.20
2016,08,21,02,55,8.30
2016,08,21,02,56,11.00
2016,08,21,02,57,9.60
2016,08,21,02,58,7.70
2016,08,21,02,59,10.40
2016,08,21,03,00,9.50
2016,08,21,03,01,9.00
2016,08,21,03,02,4.50
2016,08,21,03,03,5.10
2016,08,21,03,04,7.10
2016,08,21,03,05,10.40
2016,08,21,03,06,8.40
2016,08,21,03,07,9.70
2016,08,21,03,08,4.90
2016,08,21,03,09,4.30
2016,08,21,03,10,4.00
2016,08,21,03,11,5.20
2016,08,21,03,12,6.40
2016,08,21,03,13,7.20
2016,08,21,03,14,6.80
2016,08,21,03,15,7.90
2016,08,21,03,16,6.50
2016,08,21,03,17,8.00
2016,08,21,03,18,11.90
2016,08,21,03,19,10.90
2016,08,21,03,20,11.90
2016,08,21,03,21,9.90
2016,08,21,03,22,7.70
2016,08,21,03,23,8.60
2016,08,21,03,24,8.20
2016,08,21,03,25,5.80
2016,08,21,03,26,4.90
2016,08,21,03,27,7.30
2016,08,21,03,28,3.70
2016,08,21,03,29,5.10
2016,08,21,03,30,8.80
2016,08,21,03,31,8.30
2016,08,21,03,32,7.90
2016,08,21,03,33,6.10
2016,08,21,03,34,6.40
2016,08,21,03,35,6.70
2016,08,21,03,36,9.50
2016,08,21,03,37,9.90
2016,08,21,03,38,7.10
2016,08,21,03,39,8.20
2016,08,21,03,40,6.90
2016,08,21,03,41,10.30
2016,08,21,03,42,7.00
2016,08,21,03,43,11.40
2016,08,21,03,44,10.30
2016,08,21,03,45,8.20
2016,08,21,03,46,8.10
2016,08,21,03,47,7.50
2016,08,21,03,48,6.30
2016,08,21,03,49,8.20
2016,08,21,03,50,10.00
2016,08,21,03,51,8.20
2016,08,21,03,52,7.10
2016,08,21,03,53,9.00
2016,08,21,03,54,9.70
2016,08,21,03,55,11.60
2016,08,21,03,56,10.80
2016,08,21,03,57,12.80
2016,08,21,03,58,13.10
2016,08,21,03,59,9.80
2016,08,21,04,00,11.60
2016,08,21,04,01,9.50
2016,08,21,04,02,11.40
2016,08,21,04,03,11.90
2016,08,21,04,04,12.20
2016,08,21,04,05,9.50
2016,08,21,04,06,10.70
2016,08,21,04,07,7.80
2016,08,21,04,08,8.20
2016,08,21,04,09,6.40
2016,08,21,04,10,6.40
2016,08,21,04,11,6.00
2016,08,21,04,12,7.50
2016,08,21,04,13,9.20
2016,08,21,04,14,7.90
2016,08,21,04,15,10.20
2016,08,21,04,16,10.40
2016,08,21,04,17,8.80
2016,08,21,04,18,7.20
2016,08,21,04,19,10.00
2016,08,21,04,20,8.90
2016,08,21,04,21,10.60
2016,08,21,04,22,9.70
2016,08,21,04,23,8.70
2016,08,21,04,24,9.60
2016,08,21,04,25,8.70
2016,08,21,04,26,12.20
2016,08,21,04,27,10.90
2016,08,21,04,28,11.00
2016,08,21,04,29,15.50
2016,08,21,04,30,16.30
2016,08,21,04,31,14.20
2016,08,21,04,32,16.40
2016,08,21,04,33,15.30
2016,08,21,04,34,13.10
2016,08,21,04,35,11.90
2016,08,21,04,36,11.80
2016,08,21,04,37,12.30
2016,08,21,04,38,15.50
2016,08,21,04,39,14.30
2016,08,21,04,40,11.40
2016,08,21,04,41,14.10
2016,08,21,04,42,15.90
2016,08,21,04,43,14.70
2016,08,21,04,44,17.00
2016,08,21,04,45,12.80
2016,08,21,04,46,13.30
2016,08,21,04,47,13.50
2016,08,21,04,48,13.80
2016,08,21,04,49,11.90
2016,08,21,04,50,11.00
2016,08,21,04,51,6.90
2016,08,21,04,52,9.40
2016,08,21,04,53,10.60
2016,08,21,04,54,9.30
2016,08,21,04,55,10.60
2016,08,21,04,56,12.60
2016,08,21,04,57,11.30
2016,08,21,04,58,10.00
2016,08,21,04,59,8.90
2016,08,21,05,00,10.40
2016,08,21,05,01,12.70
2016,08,21,05,02,14.40
2016,08,21,05,03,12.20
2016,08,21,05,04,12.10
2016,08,21,05,05,11.70
2016,08,21,05,06,11.60
2016,08,21,05,07,13.90
2016,08,21,05,08,16.90
2016,08,21,05,09,12.20
2016,08,21,05,10,12.60
2016,08,21,05,11,12.90
2016,08,21,05,12,14.70
2016,08,21,05,13,17.20
2016,08,21,05,14,16.50
2016,08,21,05,15,13.40
2016,08,21,05,16,13.70
2016,08,21,05,17,12.90
2016,08,21,05,18,11.30
2016,08,21,05,19,10.00
2016,08,21,05,20,10.90
2016,08,21,05,21,8.90
2016,08,21,05,22,11.70
2016,08,21,05,23,9.00
2016,08,21,05,24,6.90
2016,08,21,05,25,8.60
2016,08,21,05,26,6.40
2016,08,21,05,27,7.90
2016,08,21,05,28,10.60
2016,08,21,05,29,7.60
2016,08,21,05,30,9.50
2016,08,21,05,31,9.00
2016,08,21,05,32,7.70
2016,08,21,05,33,6.30
2016,08,21,05,34,5.00
2016,08,21,05,35,7.20
2016,08,21,05,36,9.40
2016,08,21,05,37,9.50
2016,08,21,05,38,7.60
2016,08,21,05,39,9.60
2016,08,21,05,40,7.10
2016,08,21,05,41,4.80
2016,08,21,05,42,4.50
2016,08,21,05,43,4.10
2016,08,21,05,44,6.50
2016,08,21,05,45,10.60
2016,08,21,05,46,9.00
2016,08,21,05,47,9.50
2016,08,21,05,48,11.00
2016,08,21,05,49,10.40
2016,08,21,05,50,8.10
2016,08,21,05,51,6.70
2016,08,21,05,52,10.40
2016,08,21,05,53,11.10
2016,08,21,05,54,12.50
2016,08,21,05,55,10.70
2016,08,21,05,56,8.10
2016,08,21,05,57,11.40
2016,08,21,05,58,9.60
2016,08,21,05,59,12.70
2016,08,21,06,00,12.20
2016,08,21,06,01,11.00
2016,08,21,06,02,8.20
2016,08,21,06,03,11.40
2016,08,21,06,04,8.20
2016,08,21,06,05,8.50
2016,08,21,06,06,8.50
2016,08,21,06,07,8.30
2016,08,21,06,08,8.90
2016,08,21,06,09,8.50
2016,08,21,06,10,7.00
2016,08,21,06,11,7.80
2016,08,21,06,12,12.20
2016,08,21,06,13,12.00
2016,08,21,06,14,9.90
2016,08,21,06,15,10.80
2016,08,21,06,16,14.50
2016,08,21,06,17,13.90
2016,08,21,06,18,13.80
2016,08,21,06,19,10.40
2016,08,21,06,20,12.30
2016,08,21,06,21,12.90
2016,08,21,06,22,10.40
2016,08,21,06,23,11.80
2016,08,21,06,24,9.80
2016,08,21,06,25,10.00
2016,08,21,06,26,10.10
2016,08,21,06,27,8.00
2016,08,21,06,28,7.80
2016,08,21,06,29,8.80
2016,08,21,06,30,8.80
2016,08,21,06,31,9.10
2016,08,21,06,32,8.70
2016,08,21,06,33,8.10
2016,08,21,06,34,8.00
2016,08,21,06,35,7.70
2016,08,21,06,36,6.00
2016,08,21,06,37,5.00
2016,08,21,06,38,5.40
2016,08,21,06,39,4.90
2016,08,21,06,40,5.20
2016,08,21,06,41,5.70
2016,08,21,06,42,5.70
2016,08,21,06,43,8.20
2016,08,21,06,44,7.80
2016,08,21,06,45,9.00
2016,08,21,06,46,7.60
2016,08,21,06,47,9.30
2016,08,21,06,48,5.40
2016,08,21,06,49,5.40
2016,08,21,06,50,3.70
2016,08,21,06,51,3.70
2016,08,21,06,52,3.40
2016,08,21,06,53,4.90
2016,08,21,06,54,3.40
2016,08,21,06,55,4.20
2016,08,21,06,56,4.50
2016,08,21,06,57,6.60
2016,08,21,06,58,7.00
2016,08,21,06,59,6.20
2016,08,21,07,00,5.10
2016,08,21,07,01,6.60
2016,08,21,07,02,5.40
2016,08,21,07,03,5.10
2016,08,21,07,04,7.60
2016,08,21,07,05,6.10
2016,08,21,07,06,4.00
2016,08,21,07,07,3.90
2016,08,21,07,08,5.40
2016,08,21,07,09,4.50
2016,08,21,07,10,4.20
2016,08,21,07,11,4.50
2016,08,21,07,12,3.60
2016,08,21,07,13,4.50
2016,08,21,07,14,4.70
2016,08,21,07,15,3.50
2016,08,21,07,16,6.00
2016,08,21,07,17,6.40
2016,08,21,07,18,7.90
2016,08,21,07,19,8.00
2016,08,21,07,20,9.80
2016,08,21,07,21,10.90
2016,08,21,07,22,6.90
2016,08,21,07,23,6.30
2016,08,21,07,24,6.30
2016,08,21,07,25,11.00
2016,08,21,07,26,4.50
2016,08,21,07,27,4.10
2016,08,21,07,28,8.00
2016,08,21,07,29,9.50
2016,08,21,07,30,9.80
2016,08,21,07,31,11.30
2016,08,21,07,32,9.70
2016,08,21,07,33,11.10
2016,08,21,07,34,8.70
2016,08,21,07,35,8.40
2016,08,21,07,36,9.50
2016,08,21,07,37,7.80
2016,08,21,07,38,12.80
2016,08,21,07,39,13.50
2016,08,21,07,40,13.10
2016,08,21,07,41,13.20
2016,08,21,07,42,10.60
2016,08,21,07,43,12.20
2016,08,21,07,44,9.90
2016,08,21,07,45,10.90
2016,08,21,07,46,11.20
2016,08,21,07,47,8.10
2016,08,21,07,48,8.50
2016,08,21,07,49,8.20
2016,08,21,07,50,11.60
2016,08,21,07,51,12.50
2016,08,21,07,52,13.00
2016,08,21,07,53,12.20
2016,08,21,07,54,9.30
2016,08,21,07,55,8.10
2016,08,21,07,56,9.80
2016,08,21,07,57,9.10
2016,08,21,07,58,6.10
2016,08,21,07,59,9.00
2016,08,21,08,00,10.70
2016,08,21,08,01,10.40
2016,08,21,08,02,11.20
2016,08,21,08,03,8.80
2016,08,21,08,04,10.40
2016,08,21,08,05,10.50
2016,08,21,08,06,11.80
2016,08,21,08,07,13.60
2016,08,21,08,08,12.00
2016,08,21,08,09,12.20
2016,08,21,08,10,11.30
2016,08,21,08,11,12.20
2016,08,21,08,12,12.00
2016,08,21,08,13,9.20
2016,08,21,08,14,7.80
2016,08,21,08,15,10.40
2016,08,21,08,16,6.20
2016,08,21,08,17,5.90
2016,08,21,08,18,8.00
2016,08,21,08,19,6.40
2016,08,21,08,20,12.50
2016,08,21,08,21,16.30
2016,08,21,08,22,15.70
2016,08,21,08,23,16.60
2016,08,21,08,24,14.60
2016,08,21,08,25,11.80
2016,08,21,08,26,10.80
2016,08,21,08,27,7.00
2016,08,21,08,28,9.50
2016,08,21,08,29,11.50
2016,08,21,08,30,8.70
2016,08,21,08,31,6.90
2016,08,21,08,32,8.10
2016,08,21,08,33,11.70
2016,08,21,08,34,11.60
2016,08,21,08,35,9.80
2016,08,21,08,36,8.20
2016,08,21,08,37,8.90
2016,08,21,08,38,9.20
2016,08,21,08,39,12.60
2016,08,21,08,40,12.40
2016,08,21,08,41,8.50
2016,08,21,08,42,7.10
2016,08,21,08,43,7.40
2016,08,21,08,44,4.60
2016,08,21,08,45,6.10
2016,08,21,08,46,6.70
2016,08,21,08,47,9.70
2016,08,21,08,48,11.30
2016,08,21,08,49,9.40
2016,08,21,08,50,10.10
2016,08,21,08,51,13.40
2016,08,21,08,52,9.30
2016,08,21,08,53,8.80
2016,08,21,08,54,9.20
2016,08,21,08,55,5.60
2016,08,21,08,56,5.70
2016,08,21,08,57,7.70
2016,08,21,08,58,6.90
2016,08,21,08,59,2.70
2016,08,21,09,00,3.50
2016,08,21,09,01,7.40
2016,08,21,09,02,5.10
2016,08,21,09,03,7.00
2016,08,21,09,04,7.40
2016,08,21,09,05,8.30
2016,08,21,09,06,9.70
2016,08,21,09,07,9.30
2016,08,21,09,08,9.20
2016,08,21,09,09,9.70
2016,08,21,09,10,8.80
2016,08,21,09,11,9.10
2016,08,21,09,12,6.70
2016,08,21,09,13,7.80
2016,08,21,09,14,8.40
2016,08,21,09,15,5.40
2016,08,21,09,16,3.50
2016,08,21,09,17,2.10
2016,08,21,09,18,4.90
2016,08,21,09,19,3.60
2016,08,21,09,20,3.80
2016,08,21,09,21,5.00
2016,08,21,09,22,6.90
2016,08,21,09,23,7.10
2016,08,21,09,24,7.00
2016,08,21,09,25,4.50
2016,08,21,09,26,7.90
2016,08,21,09,27,7.30
2016,08,21,09,28,9.20
2016,08,21,09,29,13.60
2016,08,21,09,30,11.70
2016,08,21,09,31,10.70
2016,08,21,09,32,15.80
2016,08,21,09,33,14.40
2016,08,21,09,34,13.00
2016,08,21,09,35,9.30
2016,08,21,09,36,11.00
2016,08,21,09,37,9.50
2016,08,21,09,38,13.70
2016,08,21,09,39,7.40
2016,08,21,09,40,5.10
2016,08,21,09,41,6.80
2016,08,21,09,42,5.30
2016,08,21,09,43,8.90
2016,08,21,09,44,6.20
2016,08,21,09,45,10.30
2016,08,21,09,46,11.10
2016,08,21,09,47,9.40
2016,08,21,09,48,12.30
2016,08,21,09,49,14.70
2016,08,21,09,50,16.30
2016,08,21,09,51,20.60
2016,08,21,09,52,17.10
2016,08,21,09,53,15.30
2016,08,21,09,54,9.10
2016,08,21,09,55,9.60
2016,08,21,09,56,11.50
2016,08,21,09,57,8.50
2016,08,21,09,58,16.30
2016,08,21,09,59,17.60
2016,08,21,10,00,14.40
2016,08,21,10,01,16.60
2016,08,21,10,02,15.90
2016,08,21,10,03,16.50
2016,08,21,10,04,16.40
2016,08,21,10,05,21.30
2016,08,21,10,06,17.10
2016,08,21,10,07,15.50
2016,08,21,10,08,19.70
2016,08,21,10,09,22.00
2016,08,21,10,10,20.00
2016,08,21,10,11,18.80
2016,08,21,10,12,16.10
2016,08,21,10,13,13.90
2016,08,21,10,14,14.10
2016,08,21,10,15,9.00
2016,08,21,10,16,9.30
2016,08,21,10,17,11.20
2016,08,21,10,18,17.40
2016,08,21,10,19,16.80
2016,08,21,10,20,20.50
2016,08,21,10,21,20.90
2016,08,21,10,22,12.30
2016,08,21,10,23,11.60
2016,08,21,10,24,18.10
2016,08,21,10,25,17.60
2016,08,21,10,26,19.60
2016,08,21,10,27,18.80
2016,08,21,10,28,14.50
2016,08,21,10,29,13.00
2016,08,21,10,30,10.60
2016,08,21,10,31,14.70
2016,08,21,10,32,16.40
2016,08,21,10,33,18.10
2016,08,21,10,34,19.40
2016,08,21,10,35,15.50
2016,08,21,10,36,14.40
2016,08,21,10,37,12.00
2016,08,21,10,38,8.80
2016,08,21,10,39,17.60
2016,08,21,10,40,15.40
2016,08,21,10,41,18.30
2016,08,21,10,42,13.50
2016,08,21,10,43,15.10
2016,08,21,10,44,14.20
2016,08,21,10,45,12.50
2016,08,21,10,46,14.20
2016,08,21,10,47,15.30
2016,08,21,10,48,19.20
2016,08,21,10,49,19.20
2016,08,21,10,50,14.10
2016,08,21,10,51,16.70
2016,08,21,10,52,16.60
2016,08,21,10,53,11.30
2016,08,21,10,54,11.70
2016,08,21,10,55,13.40
2016,08,21,10,56,11.50
2016,08,21,10,57,14.60
2016,08,21,10,58,14.40
2016,08,21,10,59,17.80
2016,08,21,11,00,9.20
2016,08,21,11,01,9.50
2016,08,21,11,02,8.00
2016,08,21,11,03,11.70
2016,08,21,11,04,13.40
2016,08,21,11,05,7.30
2016,08,21,11,06,8.60
2016,08,21,11,07,8.00
2016,08,21,11,08,11.00
2016,08,21,11,09,7.60
2016,08,21,11,10,10.10
2016,08,21,11,11,15.00
2016,08,21,11,12,13.10
2016,08,21,11,13,12.10
2016,08,21,11,14,12.00
2016,08,21,11,15,9.10
2016,08,21,11,16,11.30
2016,08,21,11,17,12.10
2016,08,21,11,18,14.50
2016,08,21,11,19,17.20
2016,08,21,11,20,9.80
2016,08,21,11,21,13.40
2016,08,21,11,22,15.90
2016,08,21,11,23,18.10
2016,08,21,11,24,12.80
2016,08,21,11,25,16.40
2016,08,21,11,26,19.90
2016,08,21,11,27,21.50
2016,08,21,11,28,21.90
2016,08,21,11,29,17.60
2016,08,21,11,30,19.20
2016,08,21,11,31,15.30
2016,08,21,11,32,16.40
2016,08,21,11,33,20.40
2016,08,21,11,34,20.90
2016,08,21,11,35,18.80
2016,08,21,11,36,19.40
2016,08,21,11,37,17.80
2016,08,21,11,38,17.80
2016,08,21,11,39,19.20
2016,08,21,11,40,21.20
2016,08,21,11,41,17.60
2016,08,21,11,42,24.80
2016,08,21,11,43,18.70
2016,08,21,11,44,20.10
2016,08,21,11,45,16.30
2016,08,21,11,46,21.70
2016,08,21,11,47,13.20
2016,08,21,11,48,17.30
2016,08,21,11,49,20.30
2016,08,21,11,50,22.50
2016,08,21,11,51,23.80
2016,08,21,11,52,15.80
2016,08,21,11,53,18.70
2016,08,21,11,54,18.20
2016,08,21,11,55,19.50
2016,08,21,11,56,15.60
2016,08,21,11,57,19.30
2016,08,21,11,58,18.40
2016,08,21,11,59,20.00
2016,08,21,12,00,16.00
2016,08,21,12,01,15.80
2016,08,21,12,02,14.90
2016,08,21,12,03,15.00
2016,08,21,12,04,20.80
2016,08,21,12,05,21.80
2016,08,21,12,06,18.50
2016,08,21,12,07,18.80
2016,08,21,12,08,17.50
2016,08,21,12,09,15.20
2016,08,21,12,10,15.10
2016,08,21,12,11,14.80
2016,08,21,12,12,22.20
2016,08,21,12,13,15.40
2016,08,21,12,14,20.80
2016,08,21,12,15,21.00
2016,08,21,12,16,20.50
2016,08,21,12,17,18.00
2016,08,21,12,18,21.00
2016,08,21,12,19,17.90
2016,08,21,12,20,11.90
2016,08,21,12,21,13.00
2016,08,21,12,22,16.90
2016,08,21,12,23,18.50
2016,08,21,12,24,14.40
2016,08,21,12,25,14.80
2016,08,21,12,26,25.00
2016,08,21,12,27,21.90
2016,08,21,12,28,16.10
2016,08,21,12,29,18.30
2016,08,21,12,30,17.90
2016,08,21,12,31,22.90
2016,08,21,12,32,19.10
2016,08,21,12,33,15.00
2016,08,21,12,34,12.50
2016,08,21,12,35,15.90
2016,08,21,12,36,21.80
2016,08,21,12,37,17.10
2016,08,21,12,38,15.40
2016,08,21,12,39,16.90
2016,08,21,12,40,17.10
2016,08,21,12,41,21.90
2016,08,21,12,42,16.10
2016,08,21,12,43,17.00
2016,08,21,12,44,20.40
2016,08,21,12,45,23.10
2016,08,21,12,46,24.00
2016,08,21,12,47,20.90
2016,08,21,12,48,19.10
2016,08,21,12,49,21.80
2016,08,21,12,50,21.70
2016,08,21,12,51,25.60
2016,08,21,12,52,22.60
2016,08,21,12,53,21.80
2016,08,21,12,54,21.50
2016,08,21,12,55,16.40
2016,08,21,12,56,20.20
2016,08,21,12,57,25.50
2016,08,21,12,58,29.30
2016,08,21,12,59,28.80
2016,08,21,13,00,25.10
2016,08,21,13,01,24.30
2016,08,21,13,02,21.60
2016,08,21,13,03,21.80
2016,08,21,13,04,28.00
2016,08,21,13,05,21.90
2016,08,21,13,06,15.20
2016,08,21,13,07,17.90
2016,08,21,13,08,25.50
2016,08,21,13,09,26.00
2016,08,21,13,10,19.60
2016,08,21,13,11,17.60
2016,08,21,13,12,22.30
2016,08,21,13,13,23.30
2016,08,21,13,14,16.00
2016,08,21,13,15,21.00
2016,08,21,13,16,11.20
2016,08,21,13,17,23.50
2016,08,21,13,18,22.00
2016,08,21,13,19,20.50
2016,08,21,13,20,18.40
2016,08,21,13,21,23.30
2016,08,21,13,22,20.70
2016,08,21,13,23,22.10
2016,08,21,13,24,27.70
2016,08,21,13,25,24.40
2016,08,21,13,26,20.40
2016,08,21,13,27,23.80
2016,08,21,13,28,14.20
2016,08,21,13,29,15.30
2016,08,21,13,30,20.70
2016,08,21,13,31,22.10
2016,08,21,13,32,26.50
2016,08,21,13,33,22.80
2016,08,21,13,34,23.20
2016,08,21,13,35,22.70
2016,08,21,13,36,21.10
2016,08,21,13,37,22.80
2016,08,21,13,38,25.40
2016,08,21,13,39,17.90
2016,08,21,13,40,24.40
2016,08,21,13,41,20.60
2016,08,21,13,42,19.30
2016,08,21,13,43,18.30
2016,08,21,13,44,15.20
2016,08,21,13,45,23.00
2016,08,21,13,46,26.50
2016,08,21,13,47,18.20
2016,08,21,13,48,22.30
2016,08,21,13,49,22.80
2016,08,21,13,50,21.80
2016,08,21,13,51,23.00
2016,08,21,13,52,23.00
2016,08,21,13,53,27.50
2016,08,21,13,54,23.20
2016,08,21,13,55,24.90
2016,08,21,13,56,21.50
2016,08,21,13,57,21.80
2016,08,21,13,58,19.40
2016,08,21,13,59,21.90
2016,08,21,14,00,16.90
2016,08,21,14,01,24.30
2016,08,21,14,02,21.00
2016,08,21,14,03,21.10
2016,08,21,14,04,19.10
2016,08,21,14,05,23.80
2016,08,21,14,06,25.70
2016,08,21,14,07,27.50
2016,08,21,14,08,25.90
2016,08,21,14,09,17.30
2016,08,21,14,10,19.40
2016,08,21,14,11,16.10
2016,08,21,14,12,25.60
2016,08,21,14,13,33.40
2016,08,21,14,14,30.60
2016,08,21,14,15,19.70
2016,08,21,14,16,20.70
2016,08,21,14,17,30.00
2016,08,21,14,18,18.20
2016,08,21,14,19,17.20
2016,08,21,14,20,20.10
2016,08,21,14,21,20.30
2016,08,21,14,22,15.60
2016,08,21,14,23,14.10
2016,08,21,14,24,16.80
2016,08,21,14,25,26.90
2016,08,21,14,26,21.00
2016,08,21,14,27,23.60
2016,08,21,14,28,33.30
2016,08,21,14,29,25.50
2016,08,21,14,30,18.20
2016,08,21,14,31,19.20
2016,08,21,14,32,22.10
2016,08,21,14,33,22.70
2016,08,21,14,34,18.30
2016,08,21,14,35,22.80
2016,08,21,14,36,24.30
2016,08,21,14,37,25.00
2016,08,21,14,38,31.50
2016,08,21,14,39,29.40
2016,08,21,14,40,32.70
2016,08,21,14,41,30.00
2016,08,21,14,42,30.30
2016,08,21,14,43,29.20
2016,08,21,14,44,32.40
2016,08,21,14,45,28.30
2016,08,21,14,46,32.40
2016,08,21,14,47,28.40
2016,08,21,14,48,34.00
2016,08,21,14,49,30.30
2016,08,21,14,50,28.50
2016,08,21,14,51,37.70
2016,08,21,14,52,29.60
2016,08,21,14,53,34.50
2016,08,21,14,54,27.80
2016,08,21,14,55,26.20
2016,08,21,14,56,32.00
2016,08,21,14,57,38.00
2016,08,21,14,58,29.30
2016,08,21,14,59,22.10
2016,08,21,15,00,30.50
2016,08,21,15,01,34.10
2016,08,21,15,02,23.30
2016,08,21,15,03,28.50
2016,08,21,15,04,32.60
2016,08,21,15,05,36.10
2016,08,21,15,06,34.00
2016,08,21,15,07,38.00
2016,08,21,15,08,36.10
2016,08,21,15,09,34.50
2016,08,21,15,10,33.70
2016,08,21,15,11,28.50
2016,08,21,15,12,25.40
2016,08,21,15,13,19.10
2016,08,21,15,14,35.50
2016,08,21,15,15,28.80
2016,08,21,15,16,31.30
2016,08,21,15,17,25.80
2016,08,21,15,18,33.10
2016,08,21,15,19,32.50
2016,08,21,15,20,33.00
2016,08,21,15,21,29.40
2016,08,21,15,22,26.50
2016,08,21,15,23,34.00
2016,08,21,15,24,28.30
2016,08,21,15,25,34.80
2016,08,21,15,26,29.00
2016,08,21,15,27,27.10
2016,08,21,15,28,22.80
2016,08,21,15,29,22.90
2016,08,21,15,30,25.70
2016,08,21,15,31,31.70
2016,08,21,15,32,26.70
2016,08,21,15,33,21.70
2016,08,21,15,34,23.50
2016,08,21,15,35,21.90
2016,08,21,15,36,27.50
2016,08,21,15,37,25.20
2016,08,21,15,38,23.80
2016,08,21,15,39,24.30
2016,08,21,15,40,25.20
2016,08,21,15,41,27.80
2016,08,21,15,42,23.40
2016,08,21,15,43,25.40
2016,08,21,15,44,22.90
2016,08,21,15,45,25.20
2016,08,21,15,46,17.50
2016,08,21,15,47,21.00
2016,08,21,15,48,26.80
2016,08,21,15,49,24.90
2016,08,21,15,50,25.60
2016,08,21,15,51,24.90
2016,08,21,15,52,35.30
2016,08,21,15,53,33.60
2016,08,21,15,54,30.50
2016,08,21,15,55,22.20
2016,08,21,15,56,19.50
2016,08,21,15,57,23.40
2016,08,21,15,58,18.30
2016,08,21,15,59,20.80
2016,08,21,16,00,26.90
2016,08,21,16,01,26.80
2016,08,21,16,02,28.20
2016,08,21,16,03,26.20
2016,08,21,16,04,24.20
2016,08,21,16,05,19.00
2016,08,21,16,06,24.30
2016,08,21,16,07,21.80
2016,08,21,16,08,21.60
2016,08,21,16,09,27.80
2016,08,21,16,10,33.00
2016,08,21,16,11,27.20
2016,08,21,16,12,34.60
2016,08,21,16,13,20.80
2016,08,21,16,14,22.90
2016,08,21,16,15,29.60
2016,08,21,16,16,29.00
2016,08,21,16,17,23.80
2016,08,21,16,18,21.20
2016,08,21,16,19,19.20
2016,08,21,16,20,18.80
2016,08,21,16,21,22.30
2016,08,21,16,22,23.80
2016,08,21,16,23,21.80
2016,08,21,16,24,12.40
2016,08,21,16,25,23.00
2016,08,21,16,26,27.50
2016,08,21,16,27,24.60
2016,08,21,16,28,25.00
2016,08,21,16,29,24.70
2016,08,21,16,30,25.50
2016,08,21,16,31,27.60
2016,08,21,16,32,22.90
2016,08,21,16,33,29.70
2016,08,21,16,34,24.70
2016,08,21,16,35,21.40
2016,08,21,16,36,26.00
2016,08,21,16,37,19.40
2016,08,21,16,38,15.70
2016,08,21,16,39,17.80
2016,08,21,16,40,16.30
2016,08,21,16,41,16.70
2016,08,21,16,42,20.60
2016,08,21,16,43,26.10
2016,08,21,16,44,16.60
2016,08,21,16,45,23.70
2016,08,21,16,46,23.60
2016,08,21,16,47,22.70
2016,08,21,16,48,18.60
2016,08,21,16,49,19.80
2016,08,21,16,50,12.70
2016,08,21,16,51,18.80
2016,08,21,16,52,15.70
2016,08,21,16,53,18.40
2016,08,21,16,54,16.70
2016,08,21,16,55,24.10
2016,08,21,16,56,22.20
2016,08,21,16,57,22.00
2016,08,21,16,58,24.90
2016,08,21,16,59,26.40
2016,08,21,17,00,23.20
2016,08,21,17,01,22.20
2016,08,21,17,02,19.90
2016,08,21,17,03,22.30
2016,08,21,17,04,22.40
2016,08,21,17,05,20.00
2016,08,21,17,06,21.40
2016,08,21,17,07,21.20
2016,08,21,17,08,21.90
2016,08,21,17,09,16.30
2016,08,21,17,10,14.00
2016,08,21,17,11,15.90
2016,08,21,17,12,26.70
2016,08,21,17,13,20.40
2016,08,21,17,14,19.30
2016,08,21,17,15,13.00
2016,08,21,17,16,18.10
2016,08,21,17,17,20.90
2016,08,21,17,18,21.00
2016,08,21,17,19,15.00
2016,08,21,17,20,18.10
2016,08,21,17,21,12.80
2016,08,21,17,22,19.40
2016,08,21,17,23,16.50
2016,08,21,17,24,17.90
2016,08,21,17,25,21.60
2016,08,21,17,26,22.90
2016,08,21,17,27,17.60
2016,08,21,17,28,16.80
2016,08,21,17,29,19.80
2016,08,21,17,30,13.90
2016,08,21,17,31,18.40
2016,08,21,17,32,14.70
2016,08,21,17,33,15.90
2016,08,21,17,34,15.70
2016,08,21,17,35,17.60
2016,08,21,17,36,17.80